Биг-Сур

США     35°58′17″N   121°27′10″W
темп.,
°C
ветер,
м/с
пор.,
м/с
влажн.,
%
обл.,
%
осадки,
мм/ч
давл.,
гПа
погр.,
м
16 октября, сб
сб1623:00+17св44350 0.0 101819
02:00+17св54340 0.0 101822
05:00+17св54340 0.0 101725
08:00+17св44350 0.0 101725
11:00+22ююв23280 0.0 1016568
14:00+21ююз12310 0.0 1015640
17:00+20зсз02301 0.0 1014238
20:00+16св2230100 0.0 101511
17 октября, вс
вс1723:00+15всв22325 0.0 101511
02:00+15всв22330 0.0 101412
05:00+13в1141100 0.0 101412
08:00+14вюв2241100 0.0 101420
11:00+15ю23510 0.0 1015333
14:00+15ю24592 0.0 1014382
17:00+13ююз13797 0.0 1014268
20:00+11ю019443 0.0 101546
18 октября, пн
пн1823:00+11зсз2395100 0.9 1015225
02:00+10сз458813 0.3 1016260
05:00+9ссз228318 0.3 1016168
08:00+9ссв23803 0.0 1017139
11:00+13зсз32595 0.0 1017683
14:00+13з65631 0.0 1016706
17:00+12зсз55701 0.0 1016439
20:00+10с23725 0.0 101671
19 октября, вт
вт1923:00+10св22630 0.0 101733
02:00+10всв33620 0.0 101655
05:00+10всв32640 0.0 101648
08:00+11всв22600 0.0 101732
11:00+13юз22565 0.0 1017392
14:00+12зюз226299 0.0 1017322
17:00+12з22628 0.0 1017200
20:00+10св11659 0.0 1018142
20 октября, ср
ср2023:00+10вюв116020 0.0 1018102
02:00+10св1157100 0.0 101986
05:00+11всв1146100 0.0 101927
08:00+12в1147100 0.0 101920
11:00+14ююз0150100 0.0 1021174
14:00+13сз016338 0.1 1020268
17:00+14зюз11675 0.1 1019170
20:00+13св11835 0.0 102011